Regional Weather Roundup
Issued by NWS

Home | Current Version | Previous Version | Text Only | Print | Product List | Glossary Off
Versions: 1 2 3 4 5 6 7 8 9 10 11 12 13 14 15 16 17 18 19 20 21 22 23 24 25 26 27 28 29 30 31 32 33 34 35 36 37 38 39 40 41 42 43 44 45 46 47 48 49 50

161
ASUS43 KDTX 182110
RWRMI
MICHIGAN HOURLY REGIONAL WEATHER ROUNDUP
NATIONAL WEATHER SERVICE DETROIT/PONTIAC MI
400 PM EST SAT NOV 18 2017

NOTE: "FAIR" INDICATES FEW OR NO CLOUDS BELOW 12,000 FEET WITH NO
SIGNIFICANT WEATHER AND/OR OBSTRUCTION TO VISIBILITY.

MIZ047>049-052>055-059>063-066>070-074>076-081>083-182200-
SOUTHEAST LOWER MICHIGAN

CITY           SKY/WX    TMP DP  RH WIND       PRES   REMARKS
ADRIAN         LGT RAIN  45  43  93 N16       29.24S FOG
ALMA           LGT SNOW  34  34  99 N10G17    29.41R WCI  26
ANN ARBOR      LGT RAIN  45  44  97 N12       29.25S FOG
BAD AXE        LGT SNOW  38  38  99 N12G18    29.35F WCI  31
CARO           MIX PCPN  39  38  96 N12G18    29.34F WCI  32
DETROIT CITY   LGT RAIN  49  45  86 NE8       29.26S FOG
DETROIT        LGT RAIN  46  45  96 N13       29.25F FOG
FLINT          LGT RAIN  41  39  93 N13G22    29.34R
GROSSE ILE     CLOUDY    46  46  97 N12       29.23S
HILLSDALE      LGT RAIN  43  41  93 N22       29.26S
HOWELL         LGT RAIN  41  41  97 N8        29.31R

CITY           SKY/WX    TMP DP  RH WIND       PRES   REMARKS
JACKSON        LGT RAIN  43  39  86 N17G23    29.29R
LAMBERTVILLE   DRIZZLE   49  47  93 N7        29.21F
LANSING        LGT RAIN  40  39  97 N14       29.36R WCI  32
LAPEER         RAIN      42  41  96 N10       29.31S
MASON          LGT RAIN  43  40  91 N14G20    29.33R
MONROE         LGT RAIN  47  46  93 N9        29.22S
MT. CLEMENS    LGT RAIN  45  45 100 N13       29.25F FOG
PONTIAC        LGT RAIN  44  43  96 N14       29.27S
PORT HOPE        N/A     40  37  89 N14G22    29.35F WCI  32
PORT HURON     LGT RAIN  45  43  93 N6        29.29S
TRI CITIES     LGT SNOW  34  34 100 N14       29.39S FOG     WCI  25
MIDLAND        LGT SNOW  34  33  97 N8        29.39S WCI  27
TROY           LGT RAIN  46  45  93 N9        29.28F
SAGINAW HB     MIX PCPN  36  36 100 N16G23    29.37R WCI  26
$$
MIZ043>046-050>051-056>058-064>065-071>073-077>080-182200-
SOUTHWEST LOWER MICHIGAN

CITY           SKY/WX    TMP DP  RH WIND       PRES   REMARKS
BATTLE CREEK   LGT RAIN  41  39  93 N15       29.35R
BENTON HARBOR  LGT RAIN  42  38  85 VRB7G24   29.43R FOG
BIG RAPIDS     CLOUDY    38  36  92 N8G16     29.44R WCI  32
COLDWATER      MIX PCPN  42  42 100 N12G22    29.31R
FREMONT        CLOUDY    39  38  97 N17G25    29.45R WCI  30
HOLLAND        LGT RAIN  40  37  89 N9G17     29.45R WCI  34
GRAND RAPIDS   LGT RAIN  38  37  97 N14G23    29.42R WCI  30
IONIA          MIX PCPN  37  36  95 N14G22    29.40R WCI  28
KALAMAZOO      LGT RAIN  41  37  86 N18G28    29.38R FOG
LUDINGTON      RAIN      40  37  91 N13G21    29.48S WCI  32
MARSHALL       LGT RAIN  40  40  99 N6G20     29.32R
MOUNT PLEASANT LGT SNOW  34  32  94 N5        29.41R WCI  30
MUSKEGON       LGT RAIN  42  37  82 N16G23    29.47R
SOUTH HAVEN    LGT SNOW  41  38  90 N13G23    29.44R
$$
MIZ016>042-182200-
NORTHERN LOWER MICHIGAN

CITY           SKY/WX    TMP DP  RH WIND       PRES   REMARKS
ALPENA         LGT RAIN  38  37  97 N8        29.45S WCI  32
BEAVER ISLAND  CLOUDY    39  34  81 N9        29.53S WCI  33
BELLAIRE       MIX PCPN  38  37  94 N9        29.49S WCI  32
CADILLAC       LGT RAIN  35  35  99 N9        29.44R WCI  28
CHARLEVOIX     CLOUDY    41  36  82 N20G25    29.53S
FRANKFORT      CLOUDY    42  38  84 N12G21    29.50F
GAYLORD        CLOUDY    35  32  88 VRB6      29.45S WCI  30
GRAYLING       CLOUDY    36  33  89 N8        29.45F WCI  30
HARBOR SPRINGS LGT RAIN  38  36  93 NW5       29.50R WCI  34
MANISTEE       LGT RAIN  40  37  89 N12       29.50R WCI  33
OSCODA         LGT SNOW  32  32  99 N7        29.40F WCI  26
PELLSTON       LGT RAIN  38  35  89 N8        29.51R WCI  32
ROGERS CITY    CLOUDY    39  34  82 N13G20    29.48R WCI  31
TRAVERSE CITY  CLOUDY    42  34  73 N14       29.48S
$$
MIZ007>008-015-182200-
EASTERN UPPER MICHIGAN

CITY           SKY/WX    TMP DP  RH WIND       PRES   REMARKS
KINROSS        CLOUDY    36  33  89 N8        29.52R WCI  30
MACKINAC ISLAN CLOUDY    38  33  82 N12G18    29.51R WCI  31
NEWBERRY       CLOUDY    34  33  96 N9        29.54R WCI  27
S. S. MARIE    CLOUDY    37  32  82 N8        29.51R WCI  31
MUNISING         N/A     39  34  82 N21G29    29.59R WCI  29
$$
MIZ004>006-011>014-085-182200-
CENTRAL UPPER MICHIGAN

CITY           SKY/WX    TMP DP  RH WIND       PRES   REMARKS
MANISTIQUE     CLOUDY    38  31  76 N16       29.55R WCI  28
ESCANABA       MIX PCPN  37  33  85 N13G20    29.59R WCI  29
SAWYER-GWINN   CLOUDY    32  30  93 N14G21    29.62R WCI  22
$$
MIZ001>003-009>011-084-182200-
WESTERN UPPER MICHIGAN

CITY           SKY/WX    TMP DP  RH WIND       PRES   REMARKS
IRON MOUNTAIN  CLOUDY    34  27  75 NW13      29.61S WCI  25
HOUGHTON       CLOUDY    29  23  78 NW16      29.68R WCI  17
COPPER HARBOR    N/A     32  27  81 N21       29.69R WCI  20
IRONWOOD       CLOUDY   N/A N/A N/A NW12      29.74R
$$

ABBREVIATIONS USED IN REMARKS
   TC - TEMPERATURE IN CELSIUS
  WCI - WIND CHILL INDEX
   HX - HEAT INDEX
  VSB - VISIBILITY





USA.gov is the U.S. government's official web portal to all federal, state and local government web resources and services.